Regional Weather Roundup
Issued by NWS Little Rock, AR

Home | Current Version | Previous Version | Text Only | Print | Product List | Glossary Off
Versions: 1 2 3 4 5 6 7 8 9 10 11 12 13 14 15 16 17 18 19 20 21 22 23 24 25 26 27 28 29 30 31 32 33 34 35 36 37 38 39 40 41 42 43 44 45 46 47 48 49 50

000
ASUS44 KLZK 182205
RWRLZK

WEATHER ROUNDUP FOR ARKANSAS
NATIONAL WEATHER SERVICE LITTLE ROCK AR
500 PM CDT WED APR 18 2018

NOTE: "FAIR" INDICATES FEW OR NO CLOUDS BELOW 12,000 FEET WITH NO
SIGNIFICANT WEATHER AND/OR OBSTRUCTIONS TO VISIBILITY.

ARZ001-003-010-029-182300-
NORTHWEST ARKANSAS

CITY           SKY/WX    TMP DP  RH WIND       PRES   REMARKS
FAYETTEVILLE   SUNNY     66  35  31 W15G26    30.03R
FORT SMITH     SUNNY     72  37  28 W18G28    30.01R
HARRISON       MOSUNNY   65  35  33 NW17G25   29.98R
BENTONVILLE    SUNNY     64  34  32 NW14G28   30.05R
ROGERS         SUNNY     64  35  34 W20G26    30.03R
SILOAM SPGS    SUNNY     64  36  35 NW16G29   30.04
HIGHFILL       SUNNY     64  34  32 NW17G28   30.03R
SPRINGDALE     SUNNY     64  34  32 MISG      30.04R
$$

ARZ004-005-016-182300-
NORTH CENTRAL ARKANSAS

CITY           SKY/WX    TMP DP  RH WIND       PRES   REMARKS
BATESVILLE     SUNNY     77  28  16 NW17G26   29.88R
FLIPPIN        MOSUNNY   69  40  34 W18       29.95R
MTN HOME       SUNNY     67  38  34 NW10G25   29.94R
$$

ARZ040-041-182300-
WEST CENTRAL ARKANSAS

CITY           SKY/WX    TMP DP  RH WIND       PRES   REMARKS
MENA           NOT AVBL
MOUNT IDA      SUNNY     77  39  25 NW8G20    29.96R
$$

ARZ009-017-025-026-028-182300-
NORTHEAST ARKANSAS

CITY           SKY/WX    TMP DP  RH WIND       PRES   REMARKS
CORNING        FAIR      75  43  31 W23G32    29.86R
JONESBORO      FAIR      76  48  37 NW17G28   29.84R
NEWPORT        FAIR      79  43  27 NW21      29.86R
WALNUT RIDGE   FAIR      76  39  26 NW29      29.85R HAZE
BLYTHEVILLE    FAIR      81  43  26 NW23G30   29.81R
$$

ARZ022-023-033-042-044-182300-
CENTRAL ARKANSAS

CITY           SKY/WX    TMP DP  RH WIND       PRES   REMARKS
LITTLE ROCK    FAIR      80  37  21 NW17G24   29.90R
N LITTLE ROCK    N/A     76  44  30 NW12G20   29.88R
JACKSONVILLE   SUNNY     80  41  25 W17G26    29.90R
CONWAY           N/A     77  41  27 W16G25    29.92R
SEARCY         FAIR      79  39  23 W15G21    29.89R
HOT SPRINGS    SUNNY     80  37  21 NW12G24   29.95R
RUSSELLVILLE   SUNNY     74  40  29 W14G29    29.94S
CLINTON        FAIR      77  32  19 W17G28    29.91R
$$

ARZ036-182300-
EAST ARKANSAS

CITY           SKY/WX    TMP DP  RH WIND       PRES   REMARKS
WEST MEMPHIS   FAIR      80  57  45 W12G21    29.83F
$$

ARZ050-053-066-070-073-182300-
SOUTHWEST ARKANSAS

CITY           SKY/WX    TMP DP  RH WIND       PRES   REMARKS
ARKADELPHIA    FAIR      82  38  20 W13G23    29.94F
CAMDEN         FAIR      82  39  21 NW9       29.94S
TEXARKANA      SUNNY     79  42  26 NW16      29.99S
EL DORADO      LGT RAIN  81  58  45 W9        29.96S
DE QUEEN       SUNNY     78  38  23 W14       29.97S
$$

ARZ056-057-069-182300-
SOUTHEAST ARKANSAS

CITY           SKY/WX    TMP DP  RH WIND       PRES   REMARKS
PINE BLUFF     FAIR      82  39  21 W14G23    29.91S
STUTTGART      FAIR      82  40  22 W15       29.89S
MONTICELLO     FAIR      80  59  48 W7        29.93S

$$





USA.gov is the U.S. government's official web portal to all federal, state and local government web resources and services.